OPS 4682 DEB, 18670

Orbit data source: Space-Track

OPS 4682 DEB, 18670 is space debris in LEO originally from a launch on Sat, 03 Apr 1965 UTC launched from the Air Force Western Test Range (AFWTR). Debris objects in space refer to the collection of defunct objects orbiting the Earth. Examples of debris include non-operational satellites, rocket bodies, and fragments generated from explosions, collisions, or faulty payload assembly.

Loading next visibility...
Identifier
18670, 1965-027AG
Orbit
LEO
Country
Flag of USUS
Related business
Manufacturer
Unknown
Mission
Spacecraft
Bus & Motor
Unknown
Mass
Unknown
Launch date (UTC)
1965-04-03 (61 years ago)
Launch vehicle
Unknown
Launch site
Air Force Western Test Range (AFWTR)
Object type
Payload
Rocket body
Debris
Shape & HBR
Unknown shape, 0.1 m
Radar Cross Section
Medium (>0.1 m² and <1 m²)

Expand to show TLE details & history
Last TLE update: 22 hours ago

TLE from 22 hours ago
0 OPS 4682 DEB
1 18670U 65027AG  26263.25104174  .00000745  00000-0  25459-2 0  9998
2 18670  90.2429 358.3776 0024108 241.9029 117.9654 12.97301458675091
Epoch: 2026-09-20T06:01Z
TLE epoch observation values (Epoch: 2026-09-20T06:01:30.006Z)
Latitude
-0.00006°
Longitude
-91.14533°
Altitude
1,284.243 km
Speed
7.21 km/s
True Right ascension
23h 53m 30s
True Declination
0° 00' 00"
Sunlit
Object was in full shadow at epoch
Visualization orbit readout
Latitude
Unknown
Longitude
Unknown
Altitude
Unknown
Speed
Unknown
Apparent Right ascension
Unknown
Apparent Declination
Unknown
Sunlit
N/A
Visualization observer readout
Local Sidereal Time
20:50:53
Azimuth
Unknown
Elevation
Unknown
Doppler factor
Unknown
Orbital elements
Apogee altitude
1,288.247 km
Perigee altitude
1,251.371 km
Semi-major axis
7,647.946 km
Eccentricity
0.00241
Inclination
90.2429°
RAAN
358.3776°
Arg. of periapsis
241.9029°
True anomaly
118.20905°
Mean anomaly
117.9654°
Eccentric anomaly
118.08726°
Mean motion
3.24508 °/min
Orbital period
110.94 mins
BSTAR
0.0025459
Loading maneuver chart data...
Computing Atmospheric mass density...
Loading historical data...
Loading historical data...
Loading historical data...
Loading historical data...
Loading historical data...
Loading historical data...
Loading historical data...

Documentation

Showing up to 5 results
|